﻿測定場所 (Monitoring sites),日付 (Measurement date),時間 (Measurement time),線量率 最大値 (max) μGy/h,線量率 最小値 (min) μGy/h,線量率 平均値 (average) μGy/h,
調布 (Chofu),2018-01-28,23:01～24:00,0.0275,0.0234,0.0254,
調布 (Chofu),2018-01-28,22:01～23:00,0.0270,0.0242,0.0253,
調布 (Chofu),2018-01-28,21:01～22:00,0.0274,0.0229,0.0254,
調布 (Chofu),2018-01-28,20:01～21:00,0.0279,0.0236,0.0252,
調布 (Chofu),2018-01-28,19:01～20:00,0.0262,0.0233,0.0249,
調布 (Chofu),2018-01-28,18:01～19:00,0.0266,0.0231,0.0247,
調布 (Chofu),2018-01-28,17:01～18:00,0.0263,0.0230,0.0248,
調布 (Chofu),2018-01-28,16:01～17:00,0.0267,0.0232,0.0248,
調布 (Chofu),2018-01-28,15:01～16:00,0.0269,0.0229,0.0248,
調布 (Chofu),2018-01-28,14:01～15:00,0.0264,0.0230,0.0249,
調布 (Chofu),2018-01-28,13:01～14:00,0.0264,0.0229,0.0247,
調布 (Chofu),2018-01-28,12:01～13:00,0.0263,0.0222,0.0246,
調布 (Chofu),2018-01-28,11:01～12:00,0.0269,0.0228,0.0246,
調布 (Chofu),2018-01-28,10:01～11:00,0.0277,0.0233,0.0254,
調布 (Chofu),2018-01-28,09:01～10:00,0.0277,0.0241,0.0263,
調布 (Chofu),2018-01-28,08:01～09:00,0.0299,0.0249,0.0270,
調布 (Chofu),2018-01-28,07:01～08:00,0.0296,0.0259,0.0277,
調布 (Chofu),2018-01-28,06:01～07:00,0.0296,0.0257,0.0275,
調布 (Chofu),2018-01-28,05:01～06:00,0.0290,0.0251,0.0269,
調布 (Chofu),2018-01-28,04:01～05:00,0.0284,0.0244,0.0266,
調布 (Chofu),2018-01-28,03:01～04:00,0.0280,0.0241,0.0260,
調布 (Chofu),2018-01-28,02:01～03:00,0.0266,0.0230,0.0246,
調布 (Chofu),2018-01-28,01:01～02:00,0.0268,0.0232,0.0247,
調布 (Chofu),2018-01-28,00:01～01:00,0.0276,0.0222,0.0246,
調布 (Chofu),2018-01-27,23:01～24:00,0.0261,0.0226,0.0246,
調布 (Chofu),2018-01-27,22:01～23:00,0.0267,0.0230,0.0247,
調布 (Chofu),2018-01-27,21:01～22:00,0.0262,0.0227,0.0244,
調布 (Chofu),2018-01-27,20:01～21:00,0.0268,0.0232,0.0246,
調布 (Chofu),2018-01-27,19:01～20:00,0.0257,0.0231,0.0243,
調布 (Chofu),2018-01-27,18:01～19:00,0.0269,0.0224,0.0243,
調布 (Chofu),2018-01-27,17:01～18:00,0.0259,0.0229,0.0242,
調布 (Chofu),2018-01-27,16:01～17:00,0.0259,0.0230,0.0242,
調布 (Chofu),2018-01-27,15:01～16:00,0.0265,0.0229,0.0244,
調布 (Chofu),2018-01-27,14:01～15:00,0.0265,0.0232,0.0245,
調布 (Chofu),2018-01-27,13:01～14:00,0.0266,0.0225,0.0243,
調布 (Chofu),2018-01-27,12:01～13:00,0.0259,0.0229,0.0243,
調布 (Chofu),2018-01-27,11:01～12:00,0.0258,0.0223,0.0243,
調布 (Chofu),2018-01-27,10:01～11:00,0.0264,0.0224,0.0246,
調布 (Chofu),2018-01-27,09:01～10:00,0.0281,0.0229,0.0249,
調布 (Chofu),2018-01-27,08:01～09:00,0.0280,0.0242,0.0259,
調布 (Chofu),2018-01-27,07:01～08:00,0.0278,0.0239,0.0257,
調布 (Chofu),2018-01-27,06:01～07:00,0.0279,0.0240,0.0260,
調布 (Chofu),2018-01-27,05:01～06:00,0.0285,0.0241,0.0258,
調布 (Chofu),2018-01-27,04:01～05:00,0.0275,0.0238,0.0258,
調布 (Chofu),2018-01-27,03:01～04:00,0.0270,0.0234,0.0250,
調布 (Chofu),2018-01-27,02:01～03:00,0.0265,0.0226,0.0248,
調布 (Chofu),2018-01-27,01:01～02:00,0.0266,0.0232,0.0245,
調布 (Chofu),2018-01-27,00:01～01:00,0.0265,0.0231,0.0246,
調布 (Chofu),2018-01-26,23:01～24:00,0.0269,0.0230,0.0246,
調布 (Chofu),2018-01-26,22:01～23:00,0.0260,0.0228,0.0247,
調布 (Chofu),2018-01-26,21:01～22:00,0.0266,0.0229,0.0242,
調布 (Chofu),2018-01-26,20:01～21:00,0.0259,0.0224,0.0242,
調布 (Chofu),2018-01-26,19:01～20:00,0.0270,0.0226,0.0242,
調布 (Chofu),2018-01-26,18:01～19:00,0.0260,0.0219,0.0239,
調布 (Chofu),2018-01-26,17:01～18:00,0.0261,0.0226,0.0238,
調布 (Chofu),2018-01-26,16:01～17:00,0.0254,0.0224,0.0239,
調布 (Chofu),2018-01-26,15:01～16:00,0.0256,0.0227,0.0241,
調布 (Chofu),2018-01-26,14:01～15:00,0.0262,0.0223,0.0240,
調布 (Chofu),2018-01-26,13:01～14:00,0.0258,0.0225,0.0239,
調布 (Chofu),2018-01-26,12:01～13:00,0.0259,0.0229,0.0241,
調布 (Chofu),2018-01-26,11:01～12:00,0.0263,0.0227,0.0244,
調布 (Chofu),2018-01-26,10:01～11:00,0.0263,0.0229,0.0246,
調布 (Chofu),2018-01-26,09:01～10:00,0.0283,0.0242,0.0259,
調布 (Chofu),2018-01-26,08:01～09:00,0.0296,0.0245,0.0268,
調布 (Chofu),2018-01-26,07:01～08:00,0.0291,0.0252,0.0269,
調布 (Chofu),2018-01-26,06:01～07:00,0.0287,0.0246,0.0270,
調布 (Chofu),2018-01-26,05:01～06:00,0.0284,0.0249,0.0267,
調布 (Chofu),2018-01-26,04:01～05:00,0.0288,0.0255,0.0268,
調布 (Chofu),2018-01-26,03:01～04:00,0.0280,0.0248,0.0266,
調布 (Chofu),2018-01-26,02:01～03:00,0.0283,0.0248,0.0268,
調布 (Chofu),2018-01-26,01:01～02:00,0.0279,0.0233,0.0257,
調布 (Chofu),2018-01-26,00:01～01:00,0.0266,0.0231,0.0249,
調布 (Chofu),2018-01-25,23:01～24:00,0.0267,0.0224,0.0246,
調布 (Chofu),2018-01-25,22:01～23:00,0.0256,0.0227,0.0243,
調布 (Chofu),2018-01-25,21:01～22:00,0.0259,0.0223,0.0241,
調布 (Chofu),2018-01-25,20:01～21:00,0.0265,0.0222,0.0241,
調布 (Chofu),2018-01-25,19:01～20:00,0.0254,0.0222,0.0240,
調布 (Chofu),2018-01-25,18:01～19:00,0.0256,0.0218,0.0239,
調布 (Chofu),2018-01-25,17:01～18:00,0.0255,0.0221,0.0237,
調布 (Chofu),2018-01-25,16:01～17:00,0.0256,0.0220,0.0239,
調布 (Chofu),2018-01-25,15:01～16:00,0.0258,0.0218,0.0239,
調布 (Chofu),2018-01-25,14:01～15:00,0.0260,0.0221,0.0241,
調布 (Chofu),2018-01-25,13:01～14:00,0.0266,0.0218,0.0242,
調布 (Chofu),2018-01-25,12:01～13:00,0.0261,0.0224,0.0240,
調布 (Chofu),2018-01-25,11:01～12:00,0.0260,0.0227,0.0240,
調布 (Chofu),2018-01-25,10:01～11:00,0.0267,0.0229,0.0243,
調布 (Chofu),2018-01-25,09:01～10:00,0.0263,0.0226,0.0246,
調布 (Chofu),2018-01-25,08:01～09:00,0.0268,0.0229,0.0244,
調布 (Chofu),2018-01-25,07:01～08:00,0.0266,0.0227,0.0246,
調布 (Chofu),2018-01-25,06:01～07:00,0.0262,0.0224,0.0244,
調布 (Chofu),2018-01-25,05:01～06:00,0.0258,0.0222,0.0241,
調布 (Chofu),2018-01-25,04:01～05:00,0.0265,0.0223,0.0244,
調布 (Chofu),2018-01-25,03:01～04:00,0.0267,0.0218,0.0243,
調布 (Chofu),2018-01-25,02:01～03:00,0.0265,0.0217,0.0242,
調布 (Chofu),2018-01-25,01:01～02:00,0.0263,0.0225,0.0242,
調布 (Chofu),2018-01-25,00:01～01:00,0.0262,0.0228,0.0245,
調布 (Chofu),2018-01-24,23:01～24:00,0.0256,0.0220,0.0243,
調布 (Chofu),2018-01-24,22:01～23:00,0.0264,0.0230,0.0245,
調布 (Chofu),2018-01-24,21:01～22:00,0.0257,0.0219,0.0239,
調布 (Chofu),2018-01-24,20:01～21:00,0.0255,0.0228,0.0241,
調布 (Chofu),2018-01-24,19:01～20:00,0.0249,0.0219,0.0236,
調布 (Chofu),2018-01-24,18:01～19:00,0.0260,0.0218,0.0238,
調布 (Chofu),2018-01-24,17:01～18:00,0.0246,0.0211,0.0232,
調布 (Chofu),2018-01-24,16:01～17:00,0.0252,0.0215,0.0233,
調布 (Chofu),2018-01-24,15:01～16:00,0.0258,0.0214,0.0234,
調布 (Chofu),2018-01-24,14:01～15:00,0.0250,0.0221,0.0233,
調布 (Chofu),2018-01-24,13:01～14:00,0.0247,0.0214,0.0232,
調布 (Chofu),2018-01-24,12:01～13:00,0.0244,0.0218,0.0232,
調布 (Chofu),2018-01-24,11:01～12:00,0.0252,0.0215,0.0232,
調布 (Chofu),2018-01-24,10:01～11:00,0.0249,0.0214,0.0231,
調布 (Chofu),2018-01-24,09:01～10:00,0.0248,0.0212,0.0233,
調布 (Chofu),2018-01-24,08:01～09:00,0.0258,0.0219,0.0233,
調布 (Chofu),2018-01-24,07:01～08:00,0.0247,0.0220,0.0234,
調布 (Chofu),2018-01-24,06:01～07:00,0.0252,0.0215,0.0235,
調布 (Chofu),2018-01-24,05:01～06:00,0.0254,0.0216,0.0235,
調布 (Chofu),2018-01-24,04:01～05:00,0.0252,0.0219,0.0236,
調布 (Chofu),2018-01-24,03:01～04:00,0.0250,0.0222,0.0237,
調布 (Chofu),2018-01-24,02:01～03:00,0.0251,0.0214,0.0234,
調布 (Chofu),2018-01-24,01:01～02:00,0.0245,0.0217,0.0231,
調布 (Chofu),2018-01-24,00:01～01:00,0.0248,0.0220,0.0231,
調布 (Chofu),2018-01-23,23:01～24:00,0.0255,0.0210,0.0229,
調布 (Chofu),2018-01-23,22:01～23:00,0.0248,0.0221,0.0233,
調布 (Chofu),2018-01-23,21:01～22:00,0.0247,0.0212,0.0230,
調布 (Chofu),2018-01-23,20:01～21:00,0.0243,0.0219,0.0233,
調布 (Chofu),2018-01-23,19:01～20:00,0.0252,0.0217,0.0233,
調布 (Chofu),2018-01-23,18:01～19:00,0.0249,0.0214,0.0230,
調布 (Chofu),2018-01-23,17:01～18:00,0.0246,0.0217,0.0232,
調布 (Chofu),2018-01-23,16:01～17:00,0.0252,0.0221,0.0237,
調布 (Chofu),2018-01-23,15:01～16:00,0.0260,0.0216,0.0234,
調布 (Chofu),2018-01-23,14:01～15:00,0.0251,0.0209,0.0227,
調布 (Chofu),2018-01-23,13:01～14:00,0.0241,0.0206,0.0225,
調布 (Chofu),2018-01-23,12:01～13:00,0.0246,0.0214,0.0229,
調布 (Chofu),2018-01-23,11:01～12:00,0.0236,0.0200,0.0218,
調布 (Chofu),2018-01-23,10:01～11:00,0.0229,0.0197,0.0215,
調布 (Chofu),2018-01-23,09:01～10:00,0.0229,0.0202,0.0213,
調布 (Chofu),2018-01-23,08:01～09:00,0.0234,0.0202,0.0220,
調布 (Chofu),2018-01-23,07:01～08:00,0.0233,0.0201,0.0218,
調布 (Chofu),2018-01-23,06:01～07:00,0.0240,0.0198,0.0218,
調布 (Chofu),2018-01-23,05:01～06:00,0.0238,0.0199,0.0218,
調布 (Chofu),2018-01-23,04:01～05:00,0.0230,0.0198,0.0215,
調布 (Chofu),2018-01-23,03:01～04:00,0.0228,0.0197,0.0213,
調布 (Chofu),2018-01-23,02:01～03:00,0.0233,0.0196,0.0215,
調布 (Chofu),2018-01-23,01:01～02:00,0.0243,0.0199,0.0217,
調布 (Chofu),2018-01-23,00:01～01:00,0.0265,0.0215,0.0242,
調布 (Chofu),2018-01-22,23:01～24:00,0.0335,0.0249,0.0285,
調布 (Chofu),2018-01-22,22:01～23:00,0.0453,0.0317,0.0368,
調布 (Chofu),2018-01-22,21:01～22:00,0.0517,0.0400,0.0470,
調布 (Chofu),2018-01-22,20:01～21:00,0.0520,0.0441,0.0486,
調布 (Chofu),2018-01-22,19:01～20:00,0.0489,0.0424,0.0460,
調布 (Chofu),2018-01-22,18:01～19:00,0.0525,0.0430,0.0478,
調布 (Chofu),2018-01-22,17:01～18:00,0.0541,0.0459,0.0495,
調布 (Chofu),2018-01-22,16:01～17:00,0.0546,0.0460,0.0504,
調布 (Chofu),2018-01-22,15:01～16:00,0.0556,0.0488,0.0520,
調布 (Chofu),2018-01-22,14:01～15:00,0.0564,0.0464,0.0507,
調布 (Chofu),2018-01-22,13:01～14:00,0.0573,0.0444,0.0495,
調布 (Chofu),2018-01-22,12:01～13:00,0.0504,0.0385,0.0441,
調布 (Chofu),2018-01-22,11:01～12:00,0.0410,0.0327,0.0363,
調布 (Chofu),2018-01-22,10:01～11:00,0.0371,0.0317,0.0342,
調布 (Chofu),2018-01-22,09:01～10:00,0.0337,0.0291,0.0314,
調布 (Chofu),2018-01-22,08:01～09:00,0.0319,0.0271,0.0299,
調布 (Chofu),2018-01-22,07:01～08:00,0.0317,0.0278,0.0294,
調布 (Chofu),2018-01-22,06:01～07:00,0.0310,0.0274,0.0292,
調布 (Chofu),2018-01-22,05:01～06:00,0.0318,0.0277,0.0294,
調布 (Chofu),2018-01-22,04:01～05:00,0.0321,0.0274,0.0294,
調布 (Chofu),2018-01-22,03:01～04:00,0.0317,0.0273,0.0293,
調布 (Chofu),2018-01-22,02:01～03:00,0.0322,0.0274,0.0296,
調布 (Chofu),2018-01-22,01:01～02:00,0.0315,0.0275,0.0293,
調布 (Chofu),2018-01-22,00:01～01:00,0.0316,0.0272,0.0292,
